Location: *
(45.9500°N, 9.0833°E)
Time: 20:49:45
(UTC+00:00)

Vanguard 2 Rocket - Pass Details

Date: 22 June 2021
Orbit: 555 x 3325 km, 32.9° (Epoch: 30 July)

Event Time Altitude Azimuth Distance (km) Brightness Sun altitude
Rises 16:44:50 0° 219° (SW) 6,899 11.8 23.5°
Reaches altitude 10° 16:49:45 10° 212° (SSW) 6,089 11.5 22.7°
Maximum altitude 17:06:59 38° 154° (SSE) 4,302 10.2 19.8°
Drops below altitude 10° 17:22:21 10° 95° (E) 5,492 10.3 17.2°
Sets 17:26:26 0° 88° (E) 6,189 10.6 16.5°
